• In United Kingdom
  • List of Countries
  • For 7 days
  • Water Temperature
  • Satellite Maps
  • Weather Map
  • Weather Widgets
  • user-avatar
    Login

    Hourly Weather Brasília

    Today, 24 September, Monday

    Time Temperature Precipitation Wind Pressure Humidity
    00:00 +26°C° 0 mm 2 mps 666 mmHg 48%
    01:00 +25°C° 0.1 mm 2 mps 666 mmHg 51%
    02:00 +25°C° 0.1 mm 2 mps 666 mmHg 54%
    03:00 +24°C° 0 mm 2 mps 665 mmHg 58%
    04:00 +24°C° 0 mm 2 mps 665 mmHg 59%
    05:00 +23°C° 0 mm 2 mps 665 mmHg 61%
    06:00 +23°C° 0 mm 2 mps 665 mmHg 62%
    07:00 +25°C° 0 mm 3 mps 666 mmHg 55%
    08:00 +27°C° 0 mm 3 mps 667 mmHg 48%
    09:00 +29°C° 0 mm 4 mps 668 mmHg 40%
    10:00 +32°C° 0 mm 4 mps 668 mmHg 35%
    11:00 +33°C° 0 mm 3 mps 668 mmHg 31%
    12:00 +34°C° 0 mm 3 mps 668 mmHg 26%
    13:00 +34°C° 0 mm 2 mps 667 mmHg 28%
    14:00 +32°C° 0 mm 2 mps 667 mmHg 29%
    15:00 +32°C° 0 mm 1 mps 666 mmHg 30%
    16:00 +31°C° 0 mm 1 mps 666 mmHg 32%
    17:00 +30°C° 0 mm 1 mps 666 mmHg 34%
    18:00 +29°C° 0 mm 1 mps 665 mmHg 35%
    19:00 +28°C° 0 mm 1 mps 666 mmHg 37%
    20:00 +28°C° 0 mm 1 mps 666 mmHg 39%
    21:00 +27°C° 0 mm 1 mps 666 mmHg 41%
    22:00 +26°C° 0 mm 1 mps 666 mmHg 42%
    23:00 +24°C° 0 mm 0 mps 666 mmHg 43%

    Tomorrow, 25 September, Tuesday

    Time Temperature Precipitation Wind Pressure Humidity
    00:00 +24°C° 0 mm 0 mps 666 mmHg 43%
    01:00 +23°C° 0 mm 0 mps 666 mmHg 44%
    02:00 +23°C° 0 mm 0 mps 665 mmHg 45%
    03:00 +25°C° 0 mm 1 mps 665 mmHg 45%
    04:00 +24°C° 0 mm 1 mps 665 mmHg 46%
    05:00 +24°C° 0 mm 1 mps 665 mmHg 46%
    06:00 +23°C° 0 mm 1 mps 665 mmHg 46%
    07:00 +26°C° 0 mm 2 mps 666 mmHg 42%
    08:00 +28°C° 0 mm 3 mps 667 mmHg 38%
    09:00 +30°C° 0 mm 4 mps 668 mmHg 34%
    10:00 +31°C° 0 mm 3 mps 668 mmHg 31%
    11:00 +33°C° 0 mm 3 mps 668 mmHg 27%
    12:00 +35°C° 0 mm 3 mps 668 mmHg 23%
    13:00 +35°C° 0 mm 3 mps 667 mmHg 23%
    14:00 +35°C° 0 mm 2 mps 666 mmHg 23%
    15:00 +34°C° 0 mm 2 mps 665 mmHg 23%
    16:00 +34°C° 0 mm 2 mps 665 mmHg 24%
    17:00 +32°C° 0 mm 2 mps 665 mmHg 26%
    18:00 +31°C° 0 mm 1 mps 665 mmHg 28%
    19:00 +30°C° 0 mm 1 mps 665 mmHg 29%
    20:00 +29°C° 0 mm 1 mps 666 mmHg 31%
    21:00 +28°C° 0 mm 1 mps 666 mmHg 32%
    22:00 +28°C° 0 mm 2 mps 666 mmHg 33%
    23:00 +27°C° 0 mm 2 mps 666 mmHg 35%

    Day after tomorrow, 26 September, Wednesday

    Time Temperature Precipitation Wind Pressure Humidity
    00:00 +27°C° 0 mm 2 mps 666 mmHg 36%
    01:00 +26°C° 0 mm 2 mps 665 mmHg 37%
    02:00 +26°C° 0 mm 2 mps 665 mmHg 37%
    03:00 +25°C° 0 mm 2 mps 664 mmHg 38%
    04:00 +25°C° 0 mm 2 mps 664 mmHg 40%
    05:00 +24°C° 0 mm 3 mps 665 mmHg 41%
    06:00 +22°C° 0 mm 3 mps 665 mmHg 42%
    07:00 +25°C° 0 mm 4 mps 666 mmHg 39%
    08:00 +27°C° 0 mm 4 mps 667 mmHg 36%
    09:00 +28°C° 0 mm 5 mps 667 mmHg 32%
    10:00 +30°C° 0 mm 4 mps 667 mmHg 29%
    11:00 +33°C° 0 mm 4 mps 668 mmHg 27%
    12:00 +34°C° 0 mm 3 mps 668 mmHg 24%
    13:00 +34°C° 0 mm 3 mps 667 mmHg 23%
    14:00 +34°C° 0 mm 3 mps 666 mmHg 23%
    15:00 +34°C° 0 mm 2 mps 665 mmHg 23%
    16:00 +32°C° 0 mm 2 mps 665 mmHg 25%
    17:00 +31°C° 0 mm 2 mps 665 mmHg 26%
    18:00 +30°C° 0 mm 1 mps 665 mmHg 28%
    19:00 +29°C° 0 mm 1 mps 665 mmHg 30%
    20:00 +29°C° 0 mm 1 mps 665 mmHg 31%
    21:00 +28°C° 0 mm 1 mps 666 mmHg 32%
    22:00 +27°C° 0 mm 2 mps 665 mmHg 33%
    23:00 +26°C° 0 mm 2 mps 665 mmHg 34%

    27 September, Thursday

    Time Temperature Precipitation Wind Pressure Humidity
    00:00 +26°C° 0 mm 2 mps 665 mmHg 35%
    01:00 +25°C° 0 mm 2 mps 665 mmHg 36%
    02:00 +25°C° 0 mm 2 mps 664 mmHg 36%
    03:00 +24°C° 0 mm 2 mps 664 mmHg 37%
    04:00 +24°C° 0 mm 2 mps 664 mmHg 37%
    05:00 +23°C° 0 mm 2 mps 665 mmHg 37%
    06:00 +23°C° 0 mm 2 mps 665 mmHg 37%
    07:00 +24°C° 0 mm 3 mps 666 mmHg 35%
    08:00 +26°C° 0 mm 4 mps 667 mmHg 33%
    09:00 +28°C° 0 mm 4 mps 667 mmHg 31%
    10:00 +30°C° 0 mm 4 mps 668 mmHg 27%
    11:00 +33°C° 0 mm 3 mps 668 mmHg 24%
    12:00 +35°C° 0 mm 2 mps 668 mmHg 20%
    13:00 +36°C° 0 mm 2 mps 667 mmHg 19%
    14:00 +36°C° 0 mm 2 mps 666 mmHg 18%
    15:00 +36°C° 0 mm 2 mps 665 mmHg 17%
    16:00 +35°C° 0 mm 2 mps 665 mmHg 19%
    17:00 +33°C° 0 mm 1 mps 665 mmHg 21%
    18:00 +31°C° 0 mm 1 mps 665 mmHg 22%
    19:00 +31°C° 0 mm 1 mps 665 mmHg 23%
    20:00 +30°C° 0 mm 2 mps 666 mmHg 25%
    21:00 +29°C° 0 mm 2 mps 666 mmHg 26%
    22:00 +28°C° 0 mm 2 mps 666 mmHg 27%
    23:00 +28°C° 0 mm 2 mps 666 mmHg 28%

    28 September, Friday

    Time Temperature Precipitation Wind Pressure Humidity
    00:00 +27°C° 0 mm 2 mps 666 mmHg 29%
    01:00 +26°C° 0 mm 2 mps 665 mmHg 31%
    02:00 +26°C° 0 mm 2 mps 665 mmHg 32%
    03:00 +25°C° 0 mm 2 mps 664 mmHg 34%
    04:00 +25°C° 0 mm 2 mps 664 mmHg 34%
    05:00 +24°C° 0 mm 1 mps 665 mmHg 34%
    06:00 +24°C° 0 mm 1 mps 665 mmHg 35%
    07:00 +26°C° 0 mm 2 mps 666 mmHg 31%
    08:00 +28°C° 0 mm 3 mps 667 mmHg 28%
    09:00 +30°C° 0 mm 4 mps 668 mmHg 25%
    10:00 +33°C° 0 mm 4 mps 668 mmHg 23%
    11:00 +34°C° 0 mm 3 mps 668 mmHg 20%
    12:00 +36°C° 0 mm 3 mps 667 mmHg 18%
    13:00 +36°C° 0 mm 2 mps 667 mmHg 18%
    14:00 +36°C° 0 mm 2 mps 666 mmHg 18%
    15:00 +37°C° 0 mm 2 mps 666 mmHg 17%
    16:00 +35°C° 0 mm 2 mps 666 mmHg 20%
    17:00 +33°C° 0 mm 1 mps 665 mmHg 22%
    18:00 +31°C° 0 mm 1 mps 665 mmHg 24%
    19:00 +31°C° 0 mm 1 mps 665 mmHg 26%
    20:00 +30°C° 0 mm 1 mps 666 mmHg 28%
    21:00 +29°C° 0 mm 1 mps 666 mmHg 29%
    22:00 +29°C° 0 mm 1 mps 665 mmHg 30%
    23:00 +28°C° 0 mm 1 mps 665 mmHg 31%

    29 September, Saturday

    Time Temperature Precipitation Wind Pressure Humidity
    00:00 +28°C° 0 mm 1 mps 665 mmHg 32%
    01:00 +27°C° 0 mm 1 mps 665 mmHg 34%
    02:00 +27°C° 0 mm 1 mps 664 mmHg 35%
    03:00 +26°C° 0 mm 1 mps 664 mmHg 36%
    04:00 +26°C° 0 mm 1 mps 664 mmHg 38%
    05:00 +25°C° 0 mm 1 mps 665 mmHg 40%
    06:00 +24°C° 0 mm 2 mps 665 mmHg 42%
    07:00 +26°C° 0 mm 2 mps 666 mmHg 38%
    08:00 +28°C° 0 mm 3 mps 667 mmHg 34%
    09:00 +30°C° 0 mm 4 mps 667 mmHg 29%
    10:00 +33°C° 0 mm 4 mps 667 mmHg 26%
    11:00 +34°C° 0 mm 3 mps 667 mmHg 24%
    12:00 +36°C° 0 mm 3 mps 667 mmHg 21%
    13:00 +36°C° 0 mm 2 mps 666 mmHg 21%
    14:00 +35°C° 0 mm 2 mps 665 mmHg 21%
    15:00 +34°C° 0 mm 1 mps 665 mmHg 21%
    16:00 +33°C° 0 mm 1 mps 665 mmHg 22%
    17:00 +32°C° 0 mm 1 mps 665 mmHg 24%
    18:00 +29°C° 0 mm 0 mps 665 mmHg 25%
    19:00 +31°C° 0 mm 1 mps 665 mmHg 26%
    20:00 +30°C° 0 mm 1 mps 665 mmHg 27%
    21:00 +30°C° 0 mm 1 mps 665 mmHg 29%
    22:00 +29°C° 0 mm 1 mps 665 mmHg 30%
    23:00 +28°C° 0 mm 1 mps 665 mmHg 32%
    Show more